THORAD AGENA D DEB, 42494

Orbit data source: Space-Track

THORAD AGENA D DEB, 42494 is space debris in SSO originally from a launch on Wed, 08 Apr 1970 UTC launched from the Air Force Western Test Range (AFWTR). Debris objects in space refer to the collection of defunct objects orbiting the Earth. Examples of debris include non-operational satellites, rocket bodies, and fragments generated from explosions, collisions, or faulty payload assembly.

Loading next visibility...
Identifier
42494, 1970-025QY
Orbit
SSO
Country
Flag of USUS
Related business
Manufacturer
Unknown
Mission
Spacecraft
Bus & Motor
Unknown
Mass
Unknown
Launch date (UTC)
1970-04-08 (56 years ago)
Launch vehicle
Unknown
Launch site
Air Force Western Test Range (AFWTR)
Object type
Payload
Rocket body
Debris
Shape & HBR
Unknown shape, 0.1 m
Radar Cross Section
Small (<0.1 m²)

Expand to show TLE details & history
Last TLE update: 4 days ago

TLE from 4 days ago
0 THORAD AGENA D DEB
1 42494U 70025QY  26170.03085440  .00000294  00000-0  43680-3 0  9996
2 42494  99.6968 250.4997 0099783 161.2921 199.1928 13.60300630611702
Epoch: 2026-06-19T00:44Z
TLE epoch observation values (Epoch: 2026-06-19T00:44:25.820Z)
Latitude
0.00001°
Longitude
-27.87356°
Altitude
1,107.347 km
Speed
7.264 km/s
True Right ascension
16h 41m 59s
True Declination
0° 00' 00"
Sunlit
Object was in full shadow at epoch
Visualization orbit readout
Latitude
Unknown
Longitude
Unknown
Altitude
Unknown
Speed
Unknown
Apparent Right ascension
Unknown
Apparent Declination
Unknown
Sunlit
N/A
Visualization observer readout
Local Sidereal Time
00:50:01
Azimuth
Unknown
Elevation
Unknown
Doppler factor
Unknown
Orbital elements
Apogee altitude
1,105.826 km
Perigee altitude
957.947 km
Semi-major axis
7,410.024 km
Eccentricity
0.00998
Inclination
99.6968°
RAAN
250.4997°
Arg. of periapsis
161.2921°
True anomaly
198.82128°
Mean anomaly
199.1928°
Eccentric anomaly
199.00661°
Mean motion
3.40262 °/min
Orbital period
105.8 mins
BSTAR
0.0004368

Documentation

Showing up to 5 results
|